Location: Arbon
(43.0005°N, 0.7472°E)
Time: 12:26:27
(UTC+00:00)

Vanguard 1 - Pass Details

Date: 30 November 2020
Orbit: 648 x 3834 km, 34.3° (Epoch: 23 January)

Event Time Altitude Azimuth Distance (km) Brightness Sun altitude
Rises 06:36:11 0° 256° (WSW) 3,656 12.5 -6.0°
Reaches altitude 10° 06:38:22 10° 250° (WSW) 2,944 12.1 -5.6°
Maximum altitude 06:45:23 51° 176° (S) 1,914 11.8 -4.5°
Drops below altitude 10° 06:58:10 10° 107° (ESE) 5,220 15.6 -2.4°
Sets 07:03:28 0° 104° (ESE) 6,739 16.3 -1.5°
